Waarnemingen

Advertentie
Mijn weer
Stockholm/Bromma, Zweden (2464): temperatuur & dauwpunt: 12.02.2019 01:00:00 - 18.02.2019 01:00:00 (CET)Stockholm/Bromma, Zweden (2464): windsnelheid: 12.02.2019 01:00:00 - 18.02.2019 01:00:00 (CET)Stockholm/Bromma, Zweden (2464): windrichting: 12.02.2019 01:00:00 - 18.02.2019 01:00:00 (CET)Stockholm/Bromma, Zweden (2464): luchtdruk: 12.02.2019 01:00:00 - 18.02.2019 01:00:00 (CET)Stockholm/Bromma, Zweden (2464): zicht: 12.02.2019 01:00:00 - 18.02.2019 01:00:00 (CET)
Datum & Tijd tt [°C] td [°C] ff [km/u] ff [kn] dd ppp [hPa] vv [km]
18.02.2019 01:00:00 2,2 -3,1 9 5 ZZO 1020,5 10
18.02.2019 00:00:00 1,9 -3,2 9 5 ZO 1020,8 10
17.02.2019 23:00:00 1,8 -3,7 9 5 ZO 1020,9 10
17.02.2019 22:00:00 1,8 -3,7 4 2 - 1021,2 10
17.02.2019 21:00:00 2,0 -3,5 5 3 Z 1021,4 10
17.02.2019 20:00:00 1,8 -2,9 5 3 ZO 1021,2 10
17.02.2019 19:00:00 1,5 -3,0 0 0 N 1021,5 10
17.02.2019 18:00:00 2,3 -2,8 4 2 - 1021,3 10
17.02.2019 17:00:00 2,5 -3,2 4 2 WZW 1020,8 10
17.02.2019 16:00:00 3,8 -3,5 5 3 WZW 1020,7 10
17.02.2019 15:00:00 4,5 -4,0 0 0 N 1020,6 10
17.02.2019 14:00:00 4,5 -4,5 0 0 N 1020,2 10
17.02.2019 13:00:00 4,5 -4,3 8 4 W 1020,2 10
17.02.2019 12:00:00 4,1 -3,7 5 3 - 1020,0 10
17.02.2019 11:00:00 3,5 -4,0 8 4 NNW 1019,7 10
17.02.2019 10:00:00 2,5 -3,4 5 3 W 1019,1 10
17.02.2019 09:00:00 0,8 -2,3 2 1 - 1018,8 10
17.02.2019 08:00:00 -0,9 -2,6 5 3 WNW 1018,3 10
17.02.2019 07:00:00 -0,9 -2,5 8 4 WNW 1017,6 10
17.02.2019 06:00:00 -1,8 -2,6 5 3 WNW 1017,0 10
17.02.2019 05:00:00 0,3 -1,5 8 4 W 1016,9 10
17.02.2019 04:00:00 0,1 -0,8 5 3 WZW 1016,5 10
17.02.2019 03:00:00 0,2 0,1 5 3 WZW 1015,9 4,4
17.02.2019 02:00:00 0,7 0,3 8 4 WZW 1015,1 5
17.02.2019 01:00:00 2,2 1,2 9 5 W 1014,2 8
17.02.2019 00:00:00 2,3 1,4 9 5 WNW 1013,3 7
16.02.2019 23:00:00 3,5 2,2 13 7 W 1013,0 8
16.02.2019 22:00:00 3,9 2,4 13 7 WZW 1012,3 8
16.02.2019 21:00:00 4,7 2,7 15 8 W 1011,4 9
16.02.2019 20:00:00 5,4 2,9 18 10 W 1010,5 10
16.02.2019 19:00:00 5,7 2,9 22 12 W 1010,3 10
16.02.2019 18:00:00 6,0 2,6 24 13 W 1009,6 10
16.02.2019 17:00:00 6,8 2,3 16 9 W 1008,5 10
16.02.2019 16:00:00 8,5 1,2 18 10 WZW 1007,4 10
16.02.2019 15:00:00 9,7 1,3 24 13 ZW 1007,6 10
16.02.2019 14:00:00 9,9 0,5 22 12 WZW 1008,8 10
16.02.2019 13:00:00 9,7 0,3 29 16 WZW 1008,7 10
16.02.2019 12:00:00 9,9 -0,6 21 11 ZW 1009,4 10
16.02.2019 11:00:00 8,3 -1,2 16 9 WZW 1010,5 10
16.02.2019 10:00:00 6,5 -1,6 16 9 ZW 1011,2 10
16.02.2019 09:00:00 5,2 -1,7 21 11 ZW 1011,6 10
16.02.2019 08:00:00 3,9 -1,5 13 7 ZW 1011,9 10
16.02.2019 07:00:00 3,4 -1,6 15 8 ZW 1012,2 10
16.02.2019 06:00:00 3,6 -1,4 9 5 ZW 1012,9 10
16.02.2019 05:00:00 3,8 -1,2 13 7 ZW 1013,8 10
16.02.2019 04:00:00 4,7 -0,9 13 7 WZW 1014,5 10
16.02.2019 03:00:00 4,9 -0,5 16 9 ZW 1015,1 10
16.02.2019 02:00:00 5,1 -0,5 22 12 WZW 1016,1 10
16.02.2019 01:00:00 5,0 -0,8 24 13 WZW 1016,8 10
16.02.2019 00:00:00 5,0 -0,6 28 15 WZW 1017,1 10
15.02.2019 23:00:00 4,5 0,1 15 8 WZW 1017,7 10
15.02.2019 22:00:00 4,0 1,0 11 6 WZW 1018,6 10
15.02.2019 21:00:00 4,1 1,5 16 9 WZW 1019,1 10
15.02.2019 20:00:00 4,3 2,2 16 9 WZW 1019,6 10
15.02.2019 19:00:00 4,8 2,7 18 10 WZW 1020,0 10
15.02.2019 18:00:00 5,3 2,8 18 10 WZW 1020,2 10
15.02.2019 17:00:00 5,7 3,0 18 10 WZW 1020,4 10
15.02.2019 16:00:00 6,2 3,4 15 8 WZW 1020,6 10
15.02.2019 15:00:00 7,0 4,1 13 7 WZW 1021,2 10
15.02.2019 14:00:00 7,5 4,3 24 13 WZW 1021,6 10
15.02.2019 13:00:00 7,7 4,3 18 10 W 1021,9 10
15.02.2019 12:00:00 6,9 4,2 18 10 W 1022,2 10
15.02.2019 11:00:00 5,9 3,9 13 7 WZW 1022,5 10
15.02.2019 10:00:00 5,0 3,7 13 7 WZW 1022,8 10
15.02.2019 09:00:00 4,2 3,5 13 7 WZW 1022,7 10
15.02.2019 08:00:00 3,6 3,2 11 6 WZW 1022,5 10
15.02.2019 07:00:00 3,6 3,0 11 6 WZW 1022,0 10
15.02.2019 06:00:00 3,6 3,0 11 6 WZW 1022,0 10
15.02.2019 05:00:00 3,6 2,9 11 6 W 1021,8 10
15.02.2019 04:00:00 3,9 3,0 16 9 WZW 1022,0 10
15.02.2019 03:00:00 3,9 2,9 16 9 WZW 1021,8 10
15.02.2019 02:00:00 3,8 2,8 13 7 W 1021,9 10
15.02.2019 01:00:00 4,3 2,8 18 10 W 1021,7 10
15.02.2019 00:00:00 4,3 2,6 18 10 W 1021,5 10
14.02.2019 23:00:00 4,7 2,7 22 12 W 1021,3 10
14.02.2019 22:00:00 4,8 2,8 18 10 W 1020,9 10
14.02.2019 21:00:00 5,3 2,8 24 13 W 1020,2 10
14.02.2019 20:00:00 5,6 3,3 22 12 W 1019,8 10
14.02.2019 19:00:00 5,8 3,3 21 11 WZW 1019,5 10
14.02.2019 18:00:00 6,0 3,5 29 16 WZW 1019,2 10
14.02.2019 17:00:00 6,4 3,7 31 17 WZW 1019,0 10
14.02.2019 16:00:00 6,8 4,1 22 12 W 1019,5 10
14.02.2019 15:00:00 6,9 4,2 15 8 ZW 1019,6 10
14.02.2019 14:00:00 6,9 4,2 16 9 ZW 1020,4 10
14.02.2019 13:00:00 6,5 4,3 13 7 ZW 1021,0 10
14.02.2019 12:00:00 5,7 3,9 15 8 WZW 1021,6 10
14.02.2019 11:00:00 4,3 3,1 16 9 WZW 1021,8 10
14.02.2019 10:00:00 2,9 2,0 9 5 ZW 1022,4 10
14.02.2019 09:00:00 1,6 0,7 11 6 ZW 1022,3 10
14.02.2019 08:00:00 1,3 -0,2 13 7 ZW 1022,4 10
14.02.2019 07:00:00 0,4 -1,2 8 4 ZW 1022,1 10
14.02.2019 06:00:00 0,3 -1,6 5 3 - 1022,2 10
14.02.2019 05:00:00 -0,3 -2,0 4 2 ZW 1022,2 10
14.02.2019 04:00:00 -1,5 -2,8 5 3 ZW 1022,3 10
14.02.2019 03:00:00 -0,5 -2,2 5 3 ZW 1022,1 10
14.02.2019 02:00:00 0,0 -1,7 5 3 WZW 1021,5 10
14.02.2019 01:00:00 1,4 -1,8 4 2 ZW 1021,0 10
14.02.2019 00:00:00 4,3 -1,3 9 5 W 1020,5 10
13.02.2019 23:00:00 4,4 -1,0 16 9 WNW 1019,7 10
13.02.2019 22:00:00 5,2 -0,9 13 7 NW 1019,3 10
13.02.2019 21:00:00 5,6 -0,7 22 12 WNW 1019,0 10
13.02.2019 20:00:00 6,0 -0,5 26 14 WNW 1018,1 10
13.02.2019 19:00:00 6,4 0,1 24 13 W 1017,2 10
13.02.2019 18:00:00 6,0 0,7 21 11 W 1016,3 10
13.02.2019 17:00:00 5,9 1,0 18 10 W 1015,5 10
13.02.2019 16:00:00 6,2 1,1 21 11 WZW 1014,6 10
13.02.2019 15:00:00 6,8 0,9 15 8 WZW 1014,0 10
13.02.2019 14:00:00 7,6 0,8 16 9 W 1012,8 10
13.02.2019 13:00:00 6,8 0,8 21 11 W 1012,7 10
13.02.2019 12:00:00 5,9 1,0 22 12 W 1012,0 10
13.02.2019 11:00:00 5,0 1,5 24 13 W 1011,0 10
13.02.2019 10:00:00 4,1 1,8 21 11 W 1009,5 10
13.02.2019 09:00:00 3,8 2,5 18 10 W 1008,2 10
13.02.2019 08:00:00 3,3 2,6 16 9 W 1007,0 10
13.02.2019 07:00:00 3,4 3,3 11 6 W 1005,6 10
13.02.2019 06:00:00 2,7 2,6 16 9 WZW 1005,1 10
13.02.2019 05:00:00 1,8 1,8 13 7 WZW 1005,9 4,2
13.02.2019 04:00:00 1,2 1,2 11 6 ZW 1006,1 4,1
13.02.2019 03:00:00 0,7 0,6 13 7 ZZW 1007,4 5
13.02.2019 02:00:00 0,1 0,0 15 8 ZZW 1009,5 10
13.02.2019 01:00:00 0,0 -0,1 13 7 Z 1010,7 10
13.02.2019 00:00:00 -0,4 -0,5 13 7 ZZW 1012,8 1,8
12.02.2019 23:00:00 -0,5 -1,5 15 8 ZW 1014,5 2,3
12.02.2019 22:00:00 -0,4 -5,6 11 6 ZW 1015,5 10
12.02.2019 21:00:00 -1,0 -6,4 9 5 ZZW 1016,3 10
12.02.2019 20:00:00 -0,7 -6,9 11 6 ZW 1017,0 10
12.02.2019 19:00:00 -0,7 -6,9 11 6 ZW 1017,4 10
12.02.2019 18:00:00 -0,4 -6,6 13 7 W 1017,6 10
12.02.2019 17:00:00 -0,5 -6,3 13 7 WZW 1017,7 10
12.02.2019 16:00:00 0,3 -6,1 16 9 W 1017,7 10
12.02.2019 15:00:00 0,9 -6,2 22 12 W 1017,4 10
12.02.2019 14:00:00 0,8 -6,1 24 13 W 1017,0 10
12.02.2019 13:00:00 0,5 -6,4 26 14 W 1016,7 10
12.02.2019 12:00:00 0,0 -6,4 22 12 WNW 1016,4 10
12.02.2019 11:00:00 -0,8 -6,4 21 11 W 1016,0 10
12.02.2019 10:00:00 -1,6 -6,2 21 11 W 1015,6 10
12.02.2019 09:00:00 -2,2 -6,2 21 11 W 1015,0 10
12.02.2019 08:00:00 -2,7 -6,2 15 8 WNW 1014,3 10
12.02.2019 07:00:00 -2,8 -5,9 16 9 W 1013,6 10
12.02.2019 06:00:00 -2,6 -5,7 13 7 W 1012,8 10
12.02.2019 05:00:00 -2,1 -5,8 16 9 WNW 1012,2 10
12.02.2019 04:00:00 -1,8 -5,6 18 10 NW 1011,0 10
12.02.2019 03:00:00 -1,4 -5,1 16 9 NW 1009,7 10
12.02.2019 02:00:00 -1,2 -4,9 18 10 NW 1008,5 10
12.02.2019 01:00:00 -1,2 -5,1 18 10 NW 1007,7 10

tt = temperatuur
td = dauwpunt
ff = windsnelheid
dd = windrichting
ppp = luchtdruk
vv = zicht

Weerstations in de omgeving